<?xml version="1.0" encoding="UTF-8" standalone="no" ?>
<gpx xmlns="http://www.topografix.com/GPX/1/1" xmlns:xsi="http://www.w3.org/2001/XMLSchema-instance" xsi:schemaLocation="http://www.topografix.com/GPX/1/1 http://www.topografix.com/GPX/1/1/gpx.xsd" version="1.1" creator="VisuGPX - https://www.visugpx.com">
  <metadata>
    <name>Aravis, séjour du RCMF</name>
    <desc><![CDATA[Aravis, séjour du RCMF]]></desc>
  </metadata>
  <trk>
    <name><![CDATA[Sosay]]></name>
    <trkseg>
      <trkpt lat="46.00482" lon="6.40917">
        <ele>940.6</ele>
        <time>2003-02-06T13:08:28Z</time>
      </trkpt>
      <trkpt lat="46.00482" lon="6.41016">
        <ele>963.8</ele>
        <time>2003-02-06T13:08:28Z</time>
      </trkpt>
      <trkpt lat="46.00332" lon="6.41391">
        <ele>1055.6</ele>
        <time>2003-02-06T13:08:28Z</time>
      </trkpt>
      <trkpt lat="46.00327" lon="6.41458">
        <ele>1071.5</ele>
        <time>2003-02-06T13:08:28Z</time>
      </trkpt>
      <trkpt lat="46.00405" lon="6.41413">
        <ele>1104.5</ele>
        <time>2003-02-06T13:08:28Z</time>
      </trkpt>
      <trkpt lat="46.00368" lon="6.41709">
        <ele>1182.1</ele>
        <time>2003-02-06T13:08:28Z</time>
      </trkpt>
      <trkpt lat="46.00415" lon="6.41795">
        <ele>1218.9</ele>
        <time>2003-02-06T13:08:28Z</time>
      </trkpt>
      <trkpt lat="46.00454" lon="6.41808">
        <ele>1246.4</ele>
        <time>2003-02-06T13:08:28Z</time>
      </trkpt>
      <trkpt lat="46.00533" lon="6.42119">
        <ele>1316.3</ele>
        <time>2003-02-06T13:08:28Z</time>
      </trkpt>
      <trkpt lat="46.00621" lon="6.42331">
        <ele>1371.6</ele>
        <time>2003-02-06T13:08:28Z</time>
      </trkpt>
      <trkpt lat="46.00722" lon="6.42659">
        <ele>1441.6</ele>
        <time>2003-02-06T13:08:28Z</time>
      </trkpt>
      <trkpt lat="46.00761" lon="6.42951">
        <ele>1481</ele>
        <time>2003-02-06T13:08:28Z</time>
      </trkpt>
      <trkpt lat="46.00894" lon="6.43069">
        <ele>1518.1</ele>
        <time>2003-02-06T13:08:28Z</time>
      </trkpt>
      <trkpt lat="46.01072" lon="6.43428">
        <ele>1563.7</ele>
        <time>2003-02-06T13:08:28Z</time>
      </trkpt>
      <trkpt lat="46.01104" lon="6.43679">
        <ele>1609.3</ele>
        <time>2003-02-06T13:08:28Z</time>
      </trkpt>
      <trkpt lat="46.0107" lon="6.4387">
        <ele>1669</ele>
        <time>2003-02-06T13:08:28Z</time>
      </trkpt>
      <trkpt lat="46.00978" lon="6.44028">
        <ele>1688.8</ele>
        <time>2003-02-06T13:08:28Z</time>
      </trkpt>
      <trkpt lat="46.00905" lon="6.442">
        <ele>1685.7</ele>
        <time>2003-02-06T13:08:28Z</time>
      </trkpt>
      <trkpt lat="46.00924" lon="6.4441">
        <ele>1679.2</ele>
        <time>2003-02-06T13:08:28Z</time>
      </trkpt>
      <trkpt lat="46.00851" lon="6.4476">
        <ele>1708.3</ele>
        <time>2003-02-06T13:08:28Z</time>
      </trkpt>
      <trkpt lat="46.00765" lon="6.44833">
        <ele>1730.7</ele>
        <time>2003-02-06T13:08:28Z</time>
      </trkpt>
      <trkpt lat="46.00673" lon="6.44734">
        <ele>1749.4</ele>
        <time>2003-02-06T13:08:28Z</time>
      </trkpt>
      <trkpt lat="46.00619" lon="6.44743">
        <ele>1798.6</ele>
        <time>2003-02-06T13:08:28Z</time>
      </trkpt>
      <trkpt lat="46.00572" lon="6.44728">
        <ele>1808</ele>
        <time>2003-02-06T13:08:28Z</time>
      </trkpt>
      <trkpt lat="46.00518" lon="6.44801">
        <ele>1814.9</ele>
        <time>2003-02-06T13:08:28Z</time>
      </trkpt>
      <trkpt lat="46.00446" lon="6.44794">
        <ele>1851.2</ele>
        <time>2003-02-06T13:08:28Z</time>
      </trkpt>
      <trkpt lat="46.0039" lon="6.44655">
        <ele>1849.9</ele>
        <time>2003-02-06T13:08:28Z</time>
      </trkpt>
      <trkpt lat="46.0039" lon="6.44584">
        <ele>1854.1</ele>
        <time>2003-02-06T13:08:28Z</time>
      </trkpt>
      <trkpt lat="46.00454" lon="6.44543">
        <ele>1872.4</ele>
        <time>2003-02-06T13:08:28Z</time>
      </trkpt>
      <trkpt lat="46.0039" lon="6.44584">
        <ele>1854.1</ele>
        <time>2003-02-06T13:08:28Z</time>
      </trkpt>
      <trkpt lat="46.0039" lon="6.44649">
        <ele>1849.5</ele>
        <time>2003-02-06T13:08:28Z</time>
      </trkpt>
      <trkpt lat="46.00441" lon="6.44782">
        <ele>1852.2</ele>
        <time>2003-02-06T13:08:28Z</time>
      </trkpt>
      <trkpt lat="46.00527" lon="6.44794">
        <ele>1810.9</ele>
        <time>2003-02-06T13:08:28Z</time>
      </trkpt>
      <trkpt lat="46.00583" lon="6.44715">
        <ele>1806.4</ele>
        <time>2003-02-06T13:08:28Z</time>
      </trkpt>
      <trkpt lat="46.00688" lon="6.44728">
        <ele>1737</ele>
        <time>2003-02-06T13:08:28Z</time>
      </trkpt>
      <trkpt lat="46.00757" lon="6.44715">
        <ele>1700.6</ele>
        <time>2003-02-06T13:08:28Z</time>
      </trkpt>
      <trkpt lat="46.00774" lon="6.44556">
        <ele>1664.5</ele>
        <time>2003-02-06T13:08:28Z</time>
      </trkpt>
      <trkpt lat="46.00727" lon="6.44331">
        <ele>1619.2</ele>
        <time>2003-02-06T13:08:28Z</time>
      </trkpt>
      <trkpt lat="46.00703" lon="6.44073">
        <ele>1593.1</ele>
        <time>2003-02-06T13:08:28Z</time>
      </trkpt>
      <trkpt lat="46.00671" lon="6.43908">
        <ele>1534.2</ele>
        <time>2003-02-06T13:08:28Z</time>
      </trkpt>
      <trkpt lat="46.00634" lon="6.43724">
        <ele>1500.5</ele>
        <time>2003-02-06T13:08:28Z</time>
      </trkpt>
      <trkpt lat="46.00643" lon="6.43533">
        <ele>1489.4</ele>
        <time>2003-02-06T13:08:28Z</time>
      </trkpt>
      <trkpt lat="46.00624" lon="6.43307">
        <ele>1451</ele>
        <time>2003-02-06T13:08:28Z</time>
      </trkpt>
      <trkpt lat="46.00632" lon="6.4311">
        <ele>1421.3</ele>
        <time>2003-02-06T13:08:28Z</time>
      </trkpt>
      <trkpt lat="46.00624" lon="6.4291">
        <ele>1389</ele>
        <time>2003-02-06T13:08:28Z</time>
      </trkpt>
      <trkpt lat="46.00596" lon="6.42758">
        <ele>1371</ele>
        <time>2003-02-06T13:08:28Z</time>
      </trkpt>
      <trkpt lat="46.00572" lon="6.42574">
        <ele>1373.9</ele>
        <time>2003-02-06T13:08:28Z</time>
      </trkpt>
      <trkpt lat="46.00549" lon="6.42376">
        <ele>1386.1</ele>
        <time>2003-02-06T13:08:28Z</time>
      </trkpt>
      <trkpt lat="46.00529" lon="6.42104">
        <ele>1313.1</ele>
        <time>2003-02-06T13:08:28Z</time>
      </trkpt>
      <trkpt lat="46.00465" lon="6.41788">
        <ele>1254.8</ele>
        <time>2003-02-06T13:08:28Z</time>
      </trkpt>
      <trkpt lat="46.0042" lon="6.41788">
        <ele>1220</ele>
        <time>2003-02-06T13:08:28Z</time>
      </trkpt>
      <trkpt lat="46.00373" lon="6.41702">
        <ele>1180.4</ele>
        <time>2003-02-06T13:08:28Z</time>
      </trkpt>
      <trkpt lat="46.00409" lon="6.41398">
        <ele>1099.3</ele>
        <time>2003-02-06T13:08:28Z</time>
      </trkpt>
      <trkpt lat="46.00336" lon="6.41458">
        <ele>1076.6</ele>
        <time>2003-02-06T13:08:28Z</time>
      </trkpt>
      <trkpt lat="46.00336" lon="6.41378">
        <ele>1055</ele>
        <time>2003-02-06T13:08:28Z</time>
      </trkpt>
      <trkpt lat="46.00491" lon="6.41003">
        <ele>964.6</ele>
        <time>2003-02-06T13:08:28Z</time>
      </trkpt>
      <trkpt lat="46.00491" lon="6.40902">
        <ele>939.2</ele>
        <time>2003-02-06T13:08:28Z</time>
      </trkpt>
    </trkseg>
  </trk>
</gpx>